Oshkosh, WI

1:33 AM CDT on September 29, 2016 (GMT -0500)
Wittman Regional

Weather History for KOSH - June, 2013

Change the Weather History Date:

Saturday, June 1, 2013

  Actual Average Record
Temperature  
Mean Temperature 69 °F -  
Max Temperature 78 °F 73 °F 90 °F (1986)
Min Temperature 60 °F 52 °F 35 °F (2003)
Cooling Degree Days 4    
Growing Degree Days 19 (Base 50)    
Moisture  
Dew Point 61 °F    
Average Humidity 79    
Maximum Humidity 100    
Minimum Humidity 52    
Precipitation  
Precipitation 0.54 in - - ()
Sea Level Pressure  
Sea Level Pressure 29.62 in    
Wind  
Wind Speed 5 mph (SSW)    
Max Wind Speed 18 mph    
Max Gust Speed 26 mph    
Visibility 8 miles    
Events Rain , Thunderstorm    
Averages and records for this station are not official NWS values.
T = Trace of Precipitation, MM = Missing Value Source: NWS Daily Summary

Daily Weather History Graph

Daily Weather History Graph

Search for Another Location

Airport or City:

Trip Planner

Search our weather history database for the weather conditions in past years. The results will help you decide how hot, cold, wet, or windy it might be!

Date:

Astronomy

Jun. 01, 2013 Rise Set
Actual Time 5:14 AM CDT 8:30 PM CDT
Civil Twilight 4:38 AM CDT 9:05 PM CDT
Nautical Twilight 3:53 AM CDT 9:51 PM CDT
Astronomical Twilight 2:56 AM CDT 10:48 PM CDT
Moon 1:23 AM CDT (6/1) 1:47 PM CDT (6/1)
Length of Visible Light 16h 26m
Length of Day
15h 16m
Last Quarter, 40% of the Moon is Illuminated
Jun 1
Last Quarter
Jun 8
New
Jun 16
First Quarter
Jun 23
Full
Jun 29
Last Quarter

Hourly Weather History & Observations

Time (CDT) Temp. Dew Point Humidity Pressure Visibility Wind Dir Wind Speed Gust Speed Precip Events Conditions
12:53 AM 64.0 °F 61.0 °F 90% 29.64 in 10.0 mi Calm Calm - N/A   Partly Cloudy
1:34 AM 64.4 °F 62.6 °F 94% 29.68 in 10.0 mi South 3.5 mph - N/A   Mostly Cloudy
1:43 AM 64.4 °F 62.6 °F 94% 29.68 in 10.0 mi Calm Calm - N/A   Mostly Cloudy
1:53 AM 64.9 °F 62.1 °F 90% 29.64 in 10.0 mi Calm Calm - N/A   Mostly Cloudy
2:53 AM 62.1 °F 61.0 °F 96% 29.61 in 2.5 mi Calm Calm - 0.02 in   Scattered Clouds
3:03 AM 62.6 °F 60.8 °F 94% 29.63 in 4.0 mi SSE 3.5 mph - N/A   Partly Cloudy
3:05 AM 60.8 °F 60.8 °F 100% 29.63 in 1.8 mi SSE 3.5 mph - N/A   Partly Cloudy
3:15 AM 62.6 °F 60.8 °F 94% 29.64 in 2.0 mi Calm Calm - N/A   Partly Cloudy
3:22 AM 62.6 °F 62.6 °F 100% 29.63 in 6.0 mi South 3.5 mph - N/A   Scattered Clouds
3:53 AM 64.0 °F 62.1 °F 93% 29.61 in 6.0 mi Calm Calm - N/A   Overcast
4:11 AM 64.4 °F 62.6 °F 94% 29.64 in 6.0 mi South 4.6 mph - N/A   Overcast
4:36 AM 64.4 °F 62.6 °F 94% 29.64 in 6.0 mi Calm Calm - N/A   Mostly Cloudy
4:53 AM 64.9 °F 63.0 °F 93% 29.60 in 6.0 mi South 4.6 mph - N/A   Mostly Cloudy
5:53 AM 64.9 °F 63.0 °F 93% 29.61 in 4.0 mi SSW 5.8 mph - N/A   Clear
6:53 AM 64.9 °F 62.1 °F 90% 29.61 in 9.0 mi Variable 3.5 mph - N/A   Clear
7:53 AM 66.9 °F 63.0 °F 87% 29.61 in 10.0 mi Calm Calm - N/A   Clear
8:53 AM 72.0 °F 59.0 °F 64% 29.62 in 10.0 mi South 4.6 mph - N/A   Clear
9:53 AM 73.0 °F 64.0 °F 73% 29.63 in 10.0 mi South 11.5 mph - N/A   Clear
10:53 AM 75.0 °F 64.0 °F 69% 29.63 in 10.0 mi South 13.8 mph 19.6 mph N/A   Scattered Clouds
11:53 AM 75.0 °F 63.0 °F 66% 29.63 in 10.0 mi South 18.4 mph - N/A   Mostly Cloudy
12:53 PM 75.9 °F 62.1 °F 62% 29.60 in 10.0 mi SSW 13.8 mph 21.9 mph N/A   Scattered Clouds
1:10 PM 73.4 °F 60.8 °F 65% 29.63 in 10.0 mi South 17.3 mph 25.3 mph N/A Thunderstorm Thunderstorm
1:53 PM 75.0 °F 61.0 °F 62% 29.60 in 10.0 mi SSW 12.7 mph 25.3 mph N/A Thunderstorm Thunderstorm
2:53 PM 78.1 °F 60.1 °F 54% 29.59 in 10.0 mi SSW 17.3 mph 26.5 mph N/A Thunderstorm Thunderstorm
3:53 PM 78.1 °F 61.0 °F 56% 29.58 in 10.0 mi SSW 17.3 mph 25.3 mph N/A Thunderstorm Thunderstorm
4:53 PM 78.1 °F 59.0 °F 52% 29.57 in 10.0 mi SSW 12.7 mph 24.2 mph N/A   Scattered Clouds
5:48 PM 69.8 °F 59.0 °F 68% 29.61 in 2.0 mi West 13.8 mph 23.0 mph 0.08 in Rain , Thunderstorm Light Thunderstorms and Rain
5:53 PM 66.0 °F 59.0 °F 78% 29.60 in 0.8 mi WSW 10.4 mph 23.0 mph 0.23 in Rain , Thunderstorm Heavy Thunderstorms and Rain
6:08 PM 64.4 °F 59.0 °F 83% 29.60 in 2.5 mi South 5.8 mph - 0.29 in Rain , Thunderstorm Light Thunderstorms and Rain
6:10 PM 64.4 °F 59.0 °F 83% 29.60 in 10.0 mi SE 4.6 mph - 0.29 in   Overcast
6:53 PM 69.1 °F 60.1 °F 73% 29.58 in 10.0 mi Calm Calm - 0.29 in   Overcast
7:53 PM 69.1 °F 60.1 °F 73% 29.60 in 10.0 mi North 4.6 mph - N/A   Mostly Cloudy
8:53 PM 66.9 °F 55.0 °F 66% 29.59 in 10.0 mi WNW 6.9 mph - N/A   Overcast
9:53 PM 64.9 °F 54.0 °F 68% 29.62 in 10.0 mi West 5.8 mph - N/A   Overcast
10:53 PM 64.9 °F 55.0 °F 70% 29.62 in 10.0 mi West 3.5 mph - N/A   Overcast
11:53 PM 64.0 °F 54.0 °F 70% 29.62 in 10.0 mi WNW 9.2 mph - N/A   Overcast